Location: *
(57.8420°S, 159.8600°W)
Time: 11:16:35
(UTC+00:00)

Cosmos 1697 Rocket - Pass Details

Date: 18 May 2021
Orbit: 832 x 844 km, 71.0° (Epoch: 22 June)

Event Time Altitude Azimuth Distance (km) Brightness Sun altitude
Rises 04:54:54 0° 241° (WSW) 3,438 6.8 -19.0°
Reaches altitude 10° 04:57:57 10° 226° (SW) 2,501 5.7 -19.4°
Maximum altitude 05:02:22 22° 175° (S) 1,784 4.3 -20.0°
Enters shadow 05:04:10 19° 150° (SSE) 1,919 4.2 -20.2°
